Time,TemperatureF,DewpointF,PressureIn,WindDirection,WindDirectionDegrees,WindSpeedMPH,WindSpeedGustMPH,Humidity,HourlyPrecipIn,Conditions,Clouds,dailyrainin,SoftwareType,DateUTC
2013-03-08 00:02:00,20.3,14.8,30.41,SSW,212,0.0,0.0,79,0.00,,---,0.00,VWS V14.01,2013-03-08 06:02:00,
2013-03-08 00:07:00,20.0,14.8,30.41,SSW,212,0.0,1.0,80,0.00,,---,0.00,VWS V14.01,2013-03-08 06:07:00,
2013-03-08 00:12:00,19.6,14.4,30.40,SSW,212,0.0,1.0,80,0.00,,---,0.00,VWS V14.01,2013-03-08 06:12:00,
2013-03-08 00:17:00,19.4,14.5,30.40,SW,219,1.0,3.0,81,0.00,,---,0.00,VWS V14.01,2013-03-08 06:17:00,
2013-03-08 00:22:00,19.5,14.9,30.41,South,191,1.0,3.0,82,0.00,,---,0.00,VWS V14.01,2013-03-08 06:22:00,
2013-03-08 00:27:00,19.6,15.3,30.41,SSW,192,0.0,3.0,83,0.00,,---,0.00,VWS V14.01,2013-03-08 06:27:00,
2013-03-08 00:32:00,19.4,14.8,30.40,SSW,192,0.0,1.0,82,0.00,,---,0.00,VWS V14.01,2013-03-08 06:32:00,
2013-03-08 00:37:00,19.7,15.7,30.41,SSE,156,1.0,3.0,84,0.00,,---,0.00,VWS V14.01,2013-03-08 06:37:00,
2013-03-08 00:42:00,20.2,16.4,30.40,ENE,62,2.0,4.0,85,0.00,,---,0.00,VWS V14.01,2013-03-08 06:42:00,
2013-03-08 00:47:00,20.5,16.7,30.40,NE,44,2.0,3.0,85,0.00,,---,0.00,VWS V14.01,2013-03-08 06:47:00,
2013-03-08 00:52:00,20.6,16.5,30.40,North,2,0.0,3.0,84,0.00,,---,0.00,VWS V14.01,2013-03-08 06:52:00,
2013-03-08 00:57:00,20.6,16.5,30.40,SE,140,0.0,6.0,84,0.00,,---,0.00,VWS V14.01,2013-03-08 06:57:00,
2013-03-08 01:02:00,20.7,16.9,30.40,SSE,163,0.0,3.0,85,0.00,,---,0.00,VWS V14.01,2013-03-08 07:02:00,
2013-03-08 01:07:00,20.5,16.4,30.40,SW,216,0.0,3.0,84,0.00,,---,0.00,VWS V14.01,2013-03-08 07:07:00,
2013-03-08 01:12:00,20.2,16.1,30.40,East,79,0.0,3.0,84,0.00,,---,0.00,VWS V14.01,2013-03-08 07:12:00,
2013-03-08 01:17:00,20.4,16.6,30.40,SE,146,2.0,3.0,85,0.00,,---,0.00,VWS V14.01,2013-03-08 07:17:00,
2013-03-08 01:22:00,20.5,16.7,30.40,SE,134,0.0,3.0,85,0.00,,---,0.00,VWS V14.01,2013-03-08 07:22:00,
2013-03-08 01:27:00,20.5,16.7,30.41,ESE,113,1.0,4.0,85,0.00,,---,0.00,VWS V14.01,2013-03-08 07:27:00,
2013-03-08 01:32:00,20.7,17.2,30.41,SSW,204,1.0,9.0,86,0.00,,---,0.00,VWS V14.01,2013-03-08 07:32:00,
2013-03-08 01:37:00,21.0,17.5,30.41,ESE,112,1.0,9.0,86,0.00,,---,0.00,VWS V14.01,2013-03-08 07:37:00,
2013-03-08 01:42:00,21.4,17.9,30.41,East,89,0.0,9.0,86,0.00,,---,0.00,VWS V14.01,2013-03-08 07:42:00,
2013-03-08 01:47:00,21.5,17.7,30.41,SSW,211,3.0,5.0,85,0.00,,---,0.00,VWS V14.01,2013-03-08 07:47:00,
2013-03-08 01:52:00,21.4,17.6,30.41,SE,137,2.0,5.0,85,0.00,,---,0.00,VWS V14.01,2013-03-08 07:52:00,
2013-03-08 01:57:00,21.3,17.5,30.41,ESE,121,2.0,5.0,85,0.00,,---,0.00,VWS V14.01,2013-03-08 07:57:00,
2013-03-08 02:02:00,21.3,17.5,30.41,East,79,1.0,3.0,85,0.00,,---,0.00,VWS V14.01,2013-03-08 08:02:00,
2013-03-08 02:06:00,21.1,17.3,30.41,SSE,148,1.0,3.0,85,0.00,,---,0.00,VWS V14.01,2013-03-08 08:06:00,
2013-03-08 02:11:00,20.9,17.1,30.41,East,93,0.0,3.0,85,0.00,,---,0.00,VWS V14.01,2013-03-08 08:11:00,
2013-03-08 02:16:00,20.9,17.1,30.41,ESE,103,0.0,4.0,85,0.00,,---,0.00,VWS V14.01,2013-03-08 08:16:00,
2013-03-08 02:21:00,20.8,17.0,30.41,SSW,211,0.0,4.0,85,0.00,,---,0.00,VWS V14.01,2013-03-08 08:21:00,
2013-03-08 02:26:00,20.6,16.8,30.41,SW,223,1.0,4.0,85,0.00,,---,0.00,VWS V14.01,2013-03-08 08:26:00,
2013-03-08 02:31:00,20.5,16.7,30.41,ESE,119,1.0,4.0,85,0.00,,---,0.00,VWS V14.01,2013-03-08 08:31:00,
2013-03-08 02:36:00,20.5,17.0,30.41,SE,128,1.0,5.0,86,0.00,,---,0.00,VWS V14.01,2013-03-08 08:36:00,
2013-03-08 02:41:00,20.6,17.1,30.41,SE,136,0.0,5.0,86,0.00,,---,0.00,VWS V14.01,2013-03-08 08:41:00,
2013-03-08 02:46:00,20.1,16.3,30.41,SE,136,0.0,0.0,85,0.00,,---,0.00,VWS V14.01,2013-03-08 08:46:00,
2013-03-08 02:51:00,19.5,15.7,30.41,SE,137,0.0,0.0,85,0.00,,---,0.00,VWS V14.01,2013-03-08 08:51:00,
2013-03-08 02:56:00,18.9,15.1,30.41,SE,137,0.0,0.0,85,0.00,,---,0.00,VWS V14.01,2013-03-08 08:56:00,
2013-03-08 03:01:00,18.3,14.6,30.40,SE,137,0.0,0.0,85,0.00,,---,0.00,VWS V14.01,2013-03-08 09:01:00,
2013-03-08 03:06:00,17.7,14.0,30.40,SE,137,0.0,0.0,85,0.00,,---,0.00,VWS V14.01,2013-03-08 09:06:00,
2013-03-08 03:11:00,17.0,13.3,30.40,SE,137,0.0,0.0,85,0.00,,---,0.00,VWS V14.01,2013-03-08 09:11:00,
2013-03-08 03:16:00,16.4,12.7,30.40,SE,137,0.0,0.0,85,0.00,,---,0.00,VWS V14.01,2013-03-08 09:16:00,
2013-03-08 03:21:00,15.9,12.2,30.40,SE,137,0.0,0.0,85,0.00,,---,0.00,VWS V14.01,2013-03-08 09:21:00,
2013-03-08 03:26:00,15.8,12.4,30.40,SE,137,0.0,0.0,86,0.00,,---,0.00,VWS V14.01,2013-03-08 09:26:00,
2013-03-08 03:31:00,15.8,12.4,30.40,SE,137,0.0,0.0,86,0.00,,---,0.00,VWS V14.01,2013-03-08 09:31:00,
2013-03-08 03:36:00,15.5,12.1,30.40,SE,137,0.0,0.0,86,0.00,,---,0.00,VWS V14.01,2013-03-08 09:36:00,
2013-03-08 03:41:00,15.1,11.7,30.40,SE,137,0.0,0.0,86,0.00,,---,0.00,VWS V14.01,2013-03-08 09:41:00,
2013-03-08 03:46:00,14.7,11.5,30.40,SE,137,0.0,0.0,87,0.00,,---,0.00,VWS V14.01,2013-03-08 09:46:00,
2013-03-08 03:51:00,14.4,11.2,30.40,SE,137,0.0,0.0,87,0.00,,---,0.00,VWS V14.01,2013-03-08 09:51:00,
2013-03-08 03:56:00,14.2,11.1,30.40,SE,137,0.0,0.0,87,0.00,,---,0.00,VWS V14.01,2013-03-08 09:56:00,
2013-03-08 04:01:00,14.4,11.5,30.40,SE,137,0.0,0.0,88,0.00,,---,0.00,VWS V14.01,2013-03-08 10:01:00,
2013-03-08 04:06:00,14.4,11.5,30.40,SE,137,0.0,0.0,88,0.00,,---,0.00,VWS V14.01,2013-03-08 10:06:00,
2013-03-08 04:11:00,14.3,11.4,30.40,SE,137,0.0,0.0,88,0.00,,---,0.00,VWS V14.01,2013-03-08 10:11:00,
2013-03-08 04:16:00,14.2,11.3,30.40,SE,137,0.0,0.0,88,0.00,,---,0.00,VWS V14.01,2013-03-08 10:16:00,
2013-03-08 04:21:00,14.3,11.4,30.40,SE,137,0.0,0.0,88,0.00,,---,0.00,VWS V14.01,2013-03-08 10:21:00,
2013-03-08 04:26:00,14.5,11.9,30.40,SE,136,0.0,0.0,89,0.00,,---,0.00,VWS V14.01,2013-03-08 10:26:00,
2013-03-08 04:31:00,14.7,12.1,30.40,SE,137,0.0,0.0,89,0.00,,---,0.00,VWS V14.01,2013-03-08 10:31:00,
2013-03-08 04:36:00,14.6,11.9,30.40,SE,137,0.0,0.0,89,0.00,,---,0.00,VWS V14.01,2013-03-08 10:36:00,
2013-03-08 04:41:00,14.5,11.9,30.40,SE,137,0.0,0.0,89,0.00,,---,0.00,VWS V14.01,2013-03-08 10:41:00,
2013-03-08 04:46:00,14.4,11.8,30.40,SE,136,0.0,0.0,89,0.00,,---,0.00,VWS V14.01,2013-03-08 10:46:00,
2013-03-08 04:51:00,14.3,11.7,30.40,SE,137,0.0,0.0,89,0.00,,---,0.00,VWS V14.01,2013-03-08 10:51:00,
2013-03-08 04:56:00,14.3,11.7,30.40,SE,137,0.0,0.0,89,0.00,,---,0.00,VWS V14.01,2013-03-08 10:56:00,
2013-03-08 05:01:00,14.2,11.8,30.40,SE,137,0.0,0.0,90,0.00,,---,0.00,VWS V14.01,2013-03-08 11:01:00,
2013-03-08 05:06:00,14.0,11.4,30.40,SE,137,0.0,0.0,89,0.00,,---,0.00,VWS V14.01,2013-03-08 11:06:00,
2013-03-08 05:11:00,13.8,11.2,30.41,SE,137,0.0,0.0,89,0.00,,---,0.00,VWS V14.01,2013-03-08 11:11:00,
2013-03-08 05:16:00,13.9,11.5,30.41,SE,137,0.0,0.0,90,0.00,,---,0.00,VWS V14.01,2013-03-08 11:16:00,
2013-03-08 05:21:00,14.0,11.6,30.40,SE,137,0.0,0.0,90,0.00,,---,0.00,VWS V14.01,2013-03-08 11:21:00,
2013-03-08 05:26:00,14.0,11.6,30.40,SE,137,0.0,0.0,90,0.00,,---,0.00,VWS V14.01,2013-03-08 11:26:00,
2013-03-08 05:31:00,13.9,11.5,30.40,SE,137,0.0,0.0,90,0.00,,---,0.00,VWS V14.01,2013-03-08 11:31:00,
2013-03-08 05:36:00,13.7,11.1,30.41,SE,137,0.0,0.0,89,0.00,,---,0.00,VWS V14.01,2013-03-08 11:36:00,
2013-03-08 05:41:00,13.5,11.1,30.40,SE,137,0.0,0.0,90,0.00,,---,0.00,VWS V14.01,2013-03-08 11:41:00,
2013-03-08 05:46:00,13.7,11.3,30.41,SE,135,0.0,0.0,90,0.00,,---,0.00,VWS V14.01,2013-03-08 11:46:00,
2013-03-08 05:51:00,14.0,11.9,30.40,SE,137,0.0,0.0,91,0.00,,---,0.00,VWS V14.01,2013-03-08 11:51:00,
2013-03-08 05:56:00,13.9,11.5,30.40,SE,135,0.0,0.0,90,0.00,,---,0.00,VWS V14.01,2013-03-08 11:56:00,
2013-03-08 06:01:00,13.8,11.4,30.40,SE,135,0.0,0.0,90,0.00,,---,0.00,VWS V14.01,2013-03-08 12:01:00,
2013-03-08 06:06:00,13.8,11.4,30.40,SE,135,0.0,0.0,90,0.00,,---,0.00,VWS V14.01,2013-03-08 12:06:00,
2013-03-08 06:11:00,13.7,11.3,30.40,SE,135,0.0,0.0,90,0.00,,---,0.00,VWS V14.01,2013-03-08 12:11:00,
2013-03-08 06:16:00,13.7,11.3,30.40,SE,135,0.0,0.0,90,0.00,,---,0.00,VWS V14.01,2013-03-08 12:16:00,
2013-03-08 06:21:00,13.6,11.2,30.40,SE,135,0.0,0.0,90,0.00,,---,0.00,VWS V14.01,2013-03-08 12:21:00,
2013-03-08 06:26:00,13.5,11.1,30.40,SE,135,0.0,0.0,90,0.00,,---,0.00,VWS V14.01,2013-03-08 12:26:00,
2013-03-08 06:31:00,13.5,11.1,30.40,SE,135,0.0,0.0,90,0.00,,---,0.00,VWS V14.01,2013-03-08 12:31:00,
2013-03-08 06:36:00,13.3,10.9,30.40,SE,135,0.0,0.0,90,0.00,,---,0.00,VWS V14.01,2013-03-08 12:36:00,
2013-03-08 06:41:00,13.2,10.8,30.40,SE,135,0.0,0.0,90,0.00,,---,0.00,VWS V14.01,2013-03-08 12:41:00,
2013-03-08 06:46:00,13.2,10.8,30.40,SE,135,0.0,0.0,90,0.00,,---,0.00,VWS V14.01,2013-03-08 12:46:00,
2013-03-08 06:51:00,13.3,11.2,30.40,SE,135,0.0,0.0,91,0.00,,---,0.00,VWS V14.01,2013-03-08 12:51:00,
2013-03-08 06:56:00,13.4,11.3,30.40,SE,135,0.0,0.0,91,0.00,,---,0.00,VWS V14.01,2013-03-08 12:56:00,
2013-03-08 07:01:00,13.4,11.3,30.40,SE,137,0.0,0.0,91,0.00,,---,0.00,VWS V14.01,2013-03-08 13:01:00,
2013-03-08 07:06:00,13.7,11.6,30.40,SE,137,0.0,0.0,91,0.00,,---,0.00,VWS V14.01,2013-03-08 13:06:00,
2013-03-08 07:11:00,13.8,11.7,30.40,SE,137,0.0,0.0,91,0.00,,---,0.00,VWS V14.01,2013-03-08 13:11:00,
2013-03-08 07:16:00,14.1,12.0,30.40,SE,137,0.0,0.0,91,0.00,,---,0.00,VWS V14.01,2013-03-08 13:16:00,
2013-03-08 07:21:00,14.5,12.6,30.40,SE,137,0.0,0.0,92,0.00,,---,0.00,VWS V14.01,2013-03-08 13:21:00,
2013-03-08 07:26:00,15.1,13.2,30.39,SE,137,0.0,0.0,92,0.00,,---,0.00,VWS V14.01,2013-03-08 13:26:00,
2013-03-08 07:31:00,15.7,13.8,30.39,SE,137,0.0,0.0,92,0.00,,---,0.00,VWS V14.01,2013-03-08 13:31:00,
2013-03-08 07:36:00,16.4,14.5,30.39,SE,137,0.0,0.0,92,0.00,,---,0.00,VWS V14.01,2013-03-08 13:36:00,
2013-03-08 07:41:00,16.9,15.0,30.39,SE,137,0.0,0.0,92,0.00,,---,0.00,VWS V14.01,2013-03-08 13:41:00,
2013-03-08 07:46:00,17.4,15.5,30.39,SE,135,0.0,0.0,92,0.00,,---,0.00,VWS V14.01,2013-03-08 13:46:00,
2013-03-08 07:51:00,17.8,15.9,30.39,SE,135,0.0,0.0,92,0.00,,---,0.00,VWS V14.01,2013-03-08 13:51:00,
2013-03-08 07:56:00,18.2,16.3,30.38,NE,52,2.0,2.0,92,0.00,,---,0.00,VWS V14.01,2013-03-08 13:56:00,
2013-03-08 08:01:00,18.6,16.7,30.38,NE,52,0.0,3.0,92,0.00,,---,0.00,VWS V14.01,2013-03-08 14:01:00,
2013-03-08 08:06:00,19.0,17.1,30.38,NE,52,1.0,3.0,92,0.00,,---,0.00,VWS V14.01,2013-03-08 14:06:00,
2013-03-08 08:11:00,19.3,17.4,30.38,ENE,68,1.0,3.0,92,0.00,,---,0.00,VWS V14.01,2013-03-08 14:11:00,
2013-03-08 08:16:00,19.7,17.8,30.38,ENE,62,1.0,1.0,92,0.00,,---,0.00,VWS V14.01,2013-03-08 14:16:00,
2013-03-08 08:21:00,20.2,18.2,30.38,ENE,68,2.0,3.0,92,0.00,,---,0.00,VWS V14.01,2013-03-08 14:21:00,
2013-03-08 08:26:00,20.8,18.9,30.38,SE,137,0.0,3.0,92,0.00,,---,0.00,VWS V14.01,2013-03-08 14:26:00,
2013-03-08 08:31:00,21.2,19.0,30.38,NE,38,0.0,3.0,91,0.00,,---,0.00,VWS V14.01,2013-03-08 14:31:00,
2013-03-08 08:36:00,21.9,19.7,30.38,East,85,1.0,4.0,91,0.00,,---,0.00,VWS V14.01,2013-03-08 14:36:00,
2013-03-08 08:41:00,22.5,20.0,30.38,NNE,14,1.0,4.0,90,0.00,,---,0.00,VWS V14.01,2013-03-08 14:41:00,
2013-03-08 08:46:00,23.1,20.6,30.38,East,97,2.0,4.0,90,0.00,,---,0.00,VWS V14.01,2013-03-08 14:46:00,
2013-03-08 08:51:00,24.0,21.2,30.38,SW,216,1.0,5.0,89,0.00,,---,0.00,VWS V14.01,2013-03-08 14:51:00,
2013-03-08 08:56:00,24.8,21.8,30.38,SSW,211,2.0,5.0,88,0.00,,---,0.00,VWS V14.01,2013-03-08 14:56:00,
2013-03-08 09:01:00,25.4,21.8,30.38,SSE,152,1.0,6.0,86,0.00,,---,0.00,VWS V14.01,2013-03-08 15:01:00,
2013-03-08 09:06:00,26.0,22.1,30.38,SE,130,1.0,6.0,85,0.00,,---,0.00,VWS V14.01,2013-03-08 15:06:00,
2013-03-08 09:11:00,26.4,22.0,30.38,ESE,115,1.0,6.0,83,0.00,,---,0.00,VWS V14.01,2013-03-08 15:11:00,
2013-03-08 09:16:00,27.3,23.1,30.38,SSE,159,0.0,3.0,84,0.00,,---,0.00,VWS V14.01,2013-03-08 15:16:00,
2013-03-08 09:21:00,28.0,23.2,30.38,ESE,116,2.0,4.0,82,0.00,,---,0.00,VWS V14.01,2013-03-08 15:21:00,
2013-03-08 09:26:00,28.5,23.1,30.38,ENE,62,2.0,4.0,80,0.00,,---,0.00,VWS V14.01,2013-03-08 15:26:00,
2013-03-08 09:31:00,28.7,23.0,30.38,SE,135,0.0,4.0,79,0.00,,---,0.00,VWS V14.01,2013-03-08 15:31:00,
2013-03-08 09:36:00,28.9,22.9,30.38,East,97,2.0,5.0,78,0.00,,---,0.00,VWS V14.01,2013-03-08 15:36:00,
2013-03-08 09:41:00,29.3,23.3,30.38,ESE,113,1.0,5.0,78,0.00,,---,0.00,VWS V14.01,2013-03-08 15:41:00,
2013-03-08 09:46:00,29.3,23.0,30.38,SE,135,2.0,6.0,77,0.00,,---,0.00,VWS V14.01,2013-03-08 15:46:00,
2013-03-08 09:51:00,29.6,23.3,30.38,East,93,2.0,6.0,77,0.00,,---,0.00,VWS V14.01,2013-03-08 15:51:00,
2013-03-08 09:56:00,29.9,23.6,30.38,West,268,1.0,6.0,77,0.00,,---,0.00,VWS V14.01,2013-03-08 15:56:00,
2013-03-08 10:01:00,30.4,23.8,30.38,East,79,4.0,6.0,76,0.00,,---,0.00,VWS V14.01,2013-03-08 16:01:00,
2013-03-08 10:06:00,30.5,23.5,30.38,ESE,121,4.0,6.0,75,0.00,,---,0.00,VWS V14.01,2013-03-08 16:06:00,
2013-03-08 10:11:00,30.3,23.0,30.38,SE,142,5.0,8.0,74,0.00,,---,0.00,VWS V14.01,2013-03-08 16:11:00,
2013-03-08 10:16:00,30.3,23.0,30.39,ESE,109,1.0,6.0,74,0.00,,---,0.00,VWS V14.01,2013-03-08 16:16:00,
2013-03-08 10:21:00,30.7,23.7,30.38,NE,55,2.0,6.0,75,0.00,,---,0.00,VWS V14.01,2013-03-08 16:21:00,
2013-03-08 10:26:00,30.9,23.9,30.38,ESE,112,3.0,6.0,75,0.00,,---,0.00,VWS V14.01,2013-03-08 16:26:00,
2013-03-08 10:31:00,31.7,24.7,30.38,ESE,115,4.0,4.0,75,0.00,,---,0.00,VWS V14.01,2013-03-08 16:31:00,
2013-03-08 10:36:00,31.9,23.9,30.38,East,86,1.0,5.0,72,0.00,,---,0.00,VWS V14.01,2013-03-08 16:36:00,
2013-03-08 10:41:00,32.0,24.0,30.38,SSW,209,1.0,7.0,72,0.00,,---,0.00,VWS V14.01,2013-03-08 16:41:00,
2013-03-08 10:46:00,32.5,24.5,30.38,ESE,121,5.0,6.0,72,0.00,,---,0.00,VWS V14.01,2013-03-08 16:46:00,
2013-03-08 10:51:00,32.6,23.9,30.38,East,93,2.0,6.0,70,0.00,,---,0.00,VWS V14.01,2013-03-08 16:51:00,
2013-03-08 10:56:00,32.1,23.8,30.38,ENE,62,2.0,6.0,71,0.00,,---,0.00,VWS V14.01,2013-03-08 16:56:00,
2013-03-08 11:01:00,32.1,24.1,30.38,SSE,148,3.0,7.0,72,0.00,,---,0.00,VWS V14.01,2013-03-08 17:01:00,
2013-03-08 11:06:00,32.3,24.3,30.38,East,100,3.0,7.0,72,0.00,,---,0.00,VWS V14.01,2013-03-08 17:06:00,
2013-03-08 11:11:00,32.8,24.8,30.37,SSE,166,3.0,7.0,72,0.00,,---,0.00,VWS V14.01,2013-03-08 17:11:00,
2013-03-08 11:16:00,33.3,24.9,30.37,ESE,118,4.0,7.0,71,0.00,,---,0.00,VWS V14.01,2013-03-08 17:16:00,
2013-03-08 11:21:00,33.4,24.3,30.37,SSE,155,2.0,7.0,69,0.00,,---,0.00,VWS V14.01,2013-03-08 17:21:00,
2013-03-08 11:26:00,33.5,25.1,30.37,NE,50,2.0,7.0,71,0.00,,---,0.00,VWS V14.01,2013-03-08 17:26:00,
2013-03-08 11:31:00,33.8,25.1,30.37,East,88,4.0,5.0,70,0.00,,---,0.00,VWS V14.01,2013-03-08 17:31:00,
2013-03-08 11:36:00,33.7,25.3,30.37,ESE,106,5.0,6.0,71,0.00,,---,0.00,VWS V14.01,2013-03-08 17:36:00,
2013-03-08 11:41:00,34.3,25.5,30.36,West,264,2.0,6.0,70,0.00,,---,0.00,VWS V14.01,2013-03-08 17:41:00,
2013-03-08 11:46:00,34.7,25.2,30.36,East,88,0.0,5.0,68,0.00,,---,0.00,VWS V14.01,2013-03-08 17:46:00,
2013-03-08 11:51:00,34.8,25.3,30.36,ESE,116,1.0,8.0,68,0.00,,---,0.00,VWS V14.01,2013-03-08 17:51:00,
2013-03-08 11:56:00,35.1,26.0,30.36,SSE,160,1.0,8.0,69,0.00,,---,0.00,VWS V14.01,2013-03-08 17:56:00,
2013-03-08 12:01:00,35.2,26.1,30.36,ESE,103,2.0,7.0,69,0.00,,---,0.00,VWS V14.01,2013-03-08 18:01:00,
2013-03-08 12:06:00,35.5,26.4,30.36,ESE,106,2.0,7.0,69,0.00,,---,0.00,VWS V14.01,2013-03-08 18:06:00,
2013-03-08 12:11:00,36.4,27.2,30.36,ESE,116,4.0,7.0,69,0.00,,---,0.00,VWS V14.01,2013-03-08 18:11:00,
2013-03-08 12:16:00,36.3,26.8,30.36,ESE,116,3.0,8.0,68,0.00,,---,0.00,VWS V14.01,2013-03-08 18:16:00,
2013-03-08 12:21:00,36.3,27.1,30.35,ENE,78,4.0,8.0,69,0.00,,---,0.00,VWS V14.01,2013-03-08 18:21:00,
2013-03-08 12:26:00,36.6,27.4,30.35,SE,135,1.0,8.0,69,0.00,,---,0.00,VWS V14.01,2013-03-08 18:26:00,
2013-03-08 12:31:00,37.2,27.6,30.35,SSW,194,3.0,10.0,68,0.01,,---,0.01,VWS V14.01,2013-03-08 18:31:00,
2013-03-08 12:36:00,37.5,27.5,30.35,ENE,78,2.0,10.0,67,0.01,,---,0.01,VWS V14.01,2013-03-08 18:36:00,
2013-03-08 12:41:00,37.5,27.5,30.34,ESE,106,2.0,10.0,67,0.01,,---,0.01,VWS V14.01,2013-03-08 18:41:00,
2013-03-08 12:46:00,37.5,27.9,30.34,East,97,2.0,10.0,68,0.01,,---,0.01,VWS V14.01,2013-03-08 18:46:00,
2013-03-08 12:51:00,37.9,28.3,30.34,SE,131,4.0,10.0,68,0.01,,---,0.01,VWS V14.01,2013-03-08 18:51:00,
2013-03-08 12:56:00,37.7,27.8,30.34,South,184,1.0,10.0,67,0.01,,---,0.01,VWS V14.01,2013-03-08 18:56:00,
2013-03-08 13:01:00,37.9,28.3,30.33,ENE,78,2.0,5.0,68,0.01,,---,0.01,VWS V14.01,2013-03-08 19:01:00,
2013-03-08 13:06:00,38.1,28.5,30.33,ESE,120,3.0,7.0,68,0.01,,---,0.01,VWS V14.01,2013-03-08 19:06:00,
2013-03-08 13:11:00,38.4,28.8,30.33,ENE,59,1.0,7.0,68,0.02,,---,0.02,VWS V14.01,2013-03-08 19:11:00,
2013-03-08 13:16:00,38.5,28.9,30.32,ESE,120,7.0,8.0,68,0.02,,---,0.02,VWS V14.01,2013-03-08 19:16:00,
2013-03-08 13:21:00,38.7,28.7,30.32,SSE,168,3.0,8.0,67,0.02,,---,0.02,VWS V14.01,2013-03-08 19:21:00,
2013-03-08 13:26:00,38.7,28.7,30.32,ENE,62,3.0,9.0,67,0.02,,---,0.02,VWS V14.01,2013-03-08 19:26:00,
2013-03-08 13:31:00,38.5,28.9,30.32,SE,129,5.0,9.0,68,0.02,,---,0.02,VWS V14.01,2013-03-08 19:31:00,
2013-03-08 13:36:00,38.7,29.1,30.32,East,83,3.0,9.0,68,0.03,,---,0.03,VWS V14.01,2013-03-08 19:36:00,
2013-03-08 13:41:00,39.0,29.4,30.31,SE,128,5.0,9.0,68,0.03,,---,0.03,VWS V14.01,2013-03-08 19:41:00,
2013-03-08 13:46:00,39.2,29.5,30.31,WSW,246,5.0,5.0,68,0.02,,---,0.03,VWS V14.01,2013-03-08 19:46:00,
2013-03-08 13:51:00,39.2,29.2,30.31,East,88,2.0,8.0,67,0.02,,---,0.03,VWS V14.01,2013-03-08 19:51:00,
2013-03-08 13:56:00,39.1,29.1,30.32,South,169,2.0,8.0,67,0.02,,---,0.03,VWS V14.01,2013-03-08 19:56:00,
2013-03-08 14:01:00,39.4,29.7,30.31,SSE,148,1.0,3.0,68,0.02,,---,0.03,VWS V14.01,2013-03-08 20:01:00,
2013-03-08 14:06:00,39.6,29.2,30.31,East,83,3.0,7.0,66,0.03,,---,0.04,VWS V14.01,2013-03-08 20:06:00,
2013-03-08 14:11:00,39.3,28.9,30.31,SSE,165,4.0,10.0,66,0.04,,---,0.05,VWS V14.01,2013-03-08 20:11:00,
2013-03-08 14:16:00,39.1,29.5,30.30,SE,142,6.0,7.0,68,0.03,,---,0.05,VWS V14.01,2013-03-08 20:16:00,
2013-03-08 14:21:00,39.2,29.2,30.30,ESE,121,2.0,7.0,67,0.04,,---,0.06,VWS V14.01,2013-03-08 20:21:00,
2013-03-08 14:26:00,39.1,29.1,30.30,SSE,149,4.0,8.0,67,0.04,,---,0.06,VWS V14.01,2013-03-08 20:26:00,
2013-03-08 14:31:00,39.2,29.5,30.30,SE,128,3.0,6.0,68,0.05,,---,0.07,VWS V14.01,2013-03-08 20:31:00,
2013-03-08 14:36:00,39.3,29.3,30.30,ENE,62,2.0,8.0,67,0.05,,---,0.07,VWS V14.01,2013-03-08 20:36:00,
2013-03-08 14:41:00,39.5,29.5,30.30,SE,128,2.0,8.0,67,0.06,,---,0.08,VWS V14.01,2013-03-08 20:41:00,
2013-03-08 14:46:00,40.0,29.9,30.30,East,79,2.0,6.0,67,0.05,,---,0.08,VWS V14.01,2013-03-08 20:46:00,
2013-03-08 14:51:00,40.2,29.8,30.30,ESE,113,4.0,9.0,66,0.06,,---,0.09,VWS V14.01,2013-03-08 20:51:00,
2013-03-08 14:56:00,39.9,29.5,30.30,SE,133,4.0,9.0,66,0.07,,---,0.10,VWS V14.01,2013-03-08 20:56:00,
2013-03-08 15:01:00,39.6,29.6,30.30,ENE,66,1.0,7.0,67,0.07,,---,0.10,VWS V14.01,2013-03-08 21:01:00,
2013-03-08 15:06:00,39.7,30.0,30.30,SSW,199,2.0,7.0,68,0.07,,---,0.10,VWS V14.01,2013-03-08 21:06:00,
2013-03-08 15:11:00,39.9,30.2,30.30,ESE,122,4.0,7.0,68,0.08,,---,0.11,VWS V14.01,2013-03-08 21:11:00,
2013-03-08 15:16:00,40.1,30.4,30.30,SE,142,3.0,7.0,68,0.06,,---,0.11,VWS V14.01,2013-03-08 21:16:00,
2013-03-08 15:21:00,40.2,30.5,30.31,SW,236,3.0,7.0,68,0.07,,---,0.12,VWS V14.01,2013-03-08 21:21:00,
2013-03-08 15:26:00,40.3,30.2,30.31,SSW,201,3.0,7.0,67,0.07,,---,0.12,VWS V14.01,2013-03-08 21:26:00,
2013-03-08 15:31:00,40.3,30.2,30.31,East,94,1.0,5.0,67,0.06,,---,0.12,VWS V14.01,2013-03-08 21:31:00,
2013-03-08 15:36:00,40.0,29.9,30.30,ESE,106,4.0,5.0,67,0.06,,---,0.12,VWS V14.01,2013-03-08 21:36:00,
2013-03-08 15:41:00,39.9,30.2,30.30,SSE,152,1.0,9.0,68,0.07,,---,0.13,VWS V14.01,2013-03-08 21:41:00,
2013-03-08 15:46:00,40.0,30.3,30.30,SSE,156,3.0,5.0,68,0.05,,---,0.13,VWS V14.01,2013-03-08 21:46:00,
2013-03-08 15:51:00,39.9,30.2,30.30,SE,140,2.0,6.0,68,0.05,,---,0.13,VWS V14.01,2013-03-08 21:51:00,
2013-03-08 15:56:00,39.9,30.2,30.30,SSE,151,2.0,6.0,68,0.05,,---,0.13,VWS V14.01,2013-03-08 21:56:00,
2013-03-08 16:01:00,39.7,30.0,30.29,ESE,119,4.0,8.0,68,0.03,,---,0.13,VWS V14.01,2013-03-08 22:01:00,
2013-03-08 16:06:00,39.6,30.3,30.29,ESE,110,2.0,8.0,69,0.04,,---,0.14,VWS V14.01,2013-03-08 22:06:00,
2013-03-08 16:11:00,39.8,30.5,30.29,SE,134,3.0,8.0,69,0.04,,---,0.14,VWS V14.01,2013-03-08 22:11:00,
2013-03-08 16:16:00,39.9,30.6,30.29,SW,232,2.0,6.0,69,0.03,,---,0.14,VWS V14.01,2013-03-08 22:16:00,
2013-03-08 16:21:00,39.9,30.2,30.29,ESE,120,2.0,6.0,68,0.03,,---,0.14,VWS V14.01,2013-03-08 22:21:00,
2013-03-08 16:26:00,39.7,30.4,30.29,ESE,123,2.0,6.0,69,0.03,,---,0.14,VWS V14.01,2013-03-08 22:26:00,
2013-03-08 16:31:00,39.6,30.3,30.29,SSE,155,1.0,6.0,69,0.02,,---,0.14,VWS V14.01,2013-03-08 22:31:00,
2013-03-08 16:36:00,39.4,30.1,30.29,SE,126,0.0,6.0,69,0.02,,---,0.14,VWS V14.01,2013-03-08 22:36:00,
2013-03-08 16:41:00,39.3,30.4,30.29,ESE,110,1.0,6.0,70,0.02,,---,0.14,VWS V14.01,2013-03-08 22:41:00,
2013-03-08 16:46:00,39.2,30.2,30.29,ESE,104,2.0,4.0,70,0.02,,---,0.15,VWS V14.01,2013-03-08 22:46:00,
2013-03-08 16:51:00,39.2,30.2,30.28,ENE,72,3.0,6.0,70,0.02,,---,0.15,VWS V14.01,2013-03-08 22:51:00,
2013-03-08 16:56:00,39.1,30.2,30.28,East,88,3.0,6.0,70,0.02,,---,0.15,VWS V14.01,2013-03-08 22:56:00,
2013-03-08 17:01:00,38.9,30.3,30.28,SE,125,2.0,4.0,71,0.02,,---,0.15,VWS V14.01,2013-03-08 23:01:00,
2013-03-08 17:06:00,38.6,30.0,30.28,East,90,2.0,5.0,71,0.02,,---,0.15,VWS V14.01,2013-03-08 23:06:00,
2013-03-08 17:11:00,38.4,30.2,30.29,ENE,68,2.0,5.0,72,0.02,,---,0.15,VWS V14.01,2013-03-08 23:11:00,
2013-03-08 17:16:00,38.3,30.1,30.28,ESE,104,1.0,3.0,72,0.01,,---,0.15,VWS V14.01,2013-03-08 23:16:00,
2013-03-08 17:21:00,38.0,29.8,30.28,East,85,1.0,4.0,72,0.01,,---,0.15,VWS V14.01,2013-03-08 23:21:00,
2013-03-08 17:26:00,37.8,29.9,30.28,SE,128,1.0,4.0,73,0.01,,---,0.15,VWS V14.01,2013-03-08 23:26:00,
2013-03-08 17:31:00,37.5,29.6,30.28,ESE,121,2.0,3.0,73,0.01,,---,0.15,VWS V14.01,2013-03-08 23:31:00,
2013-03-08 17:36:00,37.3,29.8,30.28,East,81,0.0,5.0,74,0.01,,---,0.15,VWS V14.01,2013-03-08 23:36:00,
2013-03-08 17:41:00,37.2,30.0,30.27,SE,138,1.0,5.0,75,0.01,,---,0.15,VWS V14.01,2013-03-08 23:41:00,
2013-03-08 17:46:00,37.0,29.8,30.27,SE,140,0.0,0.0,75,0.00,,---,0.15,VWS V14.01,2013-03-08 23:46:00,
2013-03-08 17:51:00,36.7,29.5,30.28,SSE,151,0.0,1.0,75,0.00,,---,0.15,VWS V14.01,2013-03-08 23:51:00,
2013-03-08 17:56:00,36.4,29.6,30.27,SSE,150,1.0,1.0,76,0.00,,---,0.15,VWS V14.01,2013-03-08 23:56:00,
2013-03-08 18:01:00,36.2,29.4,30.27,SSE,151,0.0,1.0,76,0.00,,---,0.15,VWS V14.01,2013-03-09 00:01:00,
2013-03-08 18:06:00,35.9,29.4,30.27,SSE,152,0.0,1.0,77,0.00,,---,0.15,VWS V14.01,2013-03-09 00:06:00,
2013-03-08 18:11:00,35.5,29.0,30.27,SSE,151,0.0,1.0,77,0.00,,---,0.15,VWS V14.01,2013-03-09 00:11:00,
2013-03-08 18:16:00,35.4,29.2,30.27,SSE,149,0.0,1.0,78,0.00,,---,0.15,VWS V14.01,2013-03-09 00:16:00,
2013-03-08 18:21:00,35.2,29.4,30.26,SSE,149,0.0,1.0,79,0.00,,---,0.15,VWS V14.01,2013-03-09 00:21:00,
2013-03-08 18:26:00,35.0,29.2,30.26,SE,141,1.0,1.0,79,0.00,,---,0.15,VWS V14.01,2013-03-09 00:26:00,
2013-03-08 18:31:00,35.0,29.5,30.27,SE,133,0.0,2.0,80,0.00,,---,0.15,VWS V14.01,2013-03-09 00:31:00,
2013-03-08 18:36:00,34.8,29.3,30.27,East,79,1.0,4.0,80,0.00,,---,0.15,VWS V14.01,2013-03-09 00:36:00,
2013-03-08 18:41:00,34.7,29.2,30.26,SE,135,2.0,4.0,80,0.00,,---,0.15,VWS V14.01,2013-03-09 00:41:00,
2013-03-08 18:46:00,34.5,29.0,30.25,SE,135,0.0,1.0,80,0.00,,---,0.15,VWS V14.01,2013-03-09 00:46:00,
2013-03-08 18:51:00,34.3,28.8,30.25,SE,135,0.0,1.0,80,0.00,,---,0.15,VWS V14.01,2013-03-09 00:51:00,
2013-03-08 18:56:00,34.0,28.8,30.25,ESE,106,0.0,4.0,81,0.00,,---,0.15,VWS V14.01,2013-03-09 00:56:00,
2013-03-08 19:01:00,33.9,28.7,30.25,ESE,106,0.0,0.0,81,0.00,,---,0.15,VWS V14.01,2013-03-09 01:01:00,
2013-03-08 19:06:00,33.9,29.0,30.25,SSE,148,0.0,3.0,82,0.00,,---,0.15,VWS V14.01,2013-03-09 01:06:00,
2013-03-08 19:11:00,33.7,28.8,30.25,SSE,148,0.0,3.0,82,0.00,,---,0.15,VWS V14.01,2013-03-09 01:11:00,
2013-03-08 19:16:00,33.6,28.7,30.24,SSE,148,0.0,0.0,82,0.00,,---,0.15,VWS V14.01,2013-03-09 01:16:00,
2013-03-08 19:21:00,33.5,28.9,30.24,SSE,148,0.0,0.0,83,0.00,,---,0.15,VWS V14.01,2013-03-09 01:21:00,
2013-03-08 19:26:00,33.4,28.8,30.24,SSE,148,0.0,0.0,83,0.00,,---,0.15,VWS V14.01,2013-03-09 01:26:00,
2013-03-08 19:31:00,33.5,29.2,30.23,ESE,113,0.0,3.0,84,0.00,,---,0.15,VWS V14.01,2013-03-09 01:31:00,
2013-03-08 19:36:00,33.6,29.0,30.23,East,89,1.0,3.0,83,0.00,,---,0.15,VWS V14.01,2013-03-09 01:36:00,
2013-03-08 19:41:00,33.5,28.9,30.23,ENE,71,0.0,3.0,83,0.00,,---,0.15,VWS V14.01,2013-03-09 01:41:00,
2013-03-08 19:46:00,33.4,28.8,30.22,SSE,157,0.0,2.0,83,0.00,,---,0.15,VWS V14.01,2013-03-09 01:46:00,
2013-03-08 19:51:00,33.4,28.8,30.22,ESE,109,0.0,3.0,83,0.00,,---,0.15,VWS V14.01,2013-03-09 01:51:00,
2013-03-08 19:56:00,33.4,29.1,30.22,ESE,103,0.0,3.0,84,0.00,,---,0.15,VWS V14.01,2013-03-09 01:56:00,
2013-03-08 20:01:00,33.5,29.2,30.22,NNE,19,0.0,2.0,84,0.00,,---,0.15,VWS V14.01,2013-03-09 02:01:00,
2013-03-08 20:06:00,33.6,29.3,30.22,East,81,0.0,4.0,84,0.00,,---,0.15,VWS V14.01,2013-03-09 02:06:00,
2013-03-08 20:11:00,33.8,29.5,30.22,ESE,102,2.0,4.0,84,0.00,,---,0.15,VWS V14.01,2013-03-09 02:11:00,
2013-03-08 20:16:00,34.1,29.5,30.21,ESE,104,0.0,3.0,83,0.00,,---,0.15,VWS V14.01,2013-03-09 02:16:00,
2013-03-08 20:21:00,34.2,29.6,30.21,ENE,71,0.0,6.0,83,0.00,,---,0.15,VWS V14.01,2013-03-09 02:21:00,
2013-03-08 20:26:00,34.2,29.3,30.21,East,83,1.0,6.0,82,0.00,,---,0.15,VWS V14.01,2013-03-09 02:26:00,
2013-03-08 20:31:00,34.2,29.3,30.21,ENE,76,2.0,4.0,82,0.00,,---,0.15,VWS V14.01,2013-03-09 02:31:00,
2013-03-08 20:36:00,34.2,29.3,30.21,East,83,2.0,4.0,82,0.00,,---,0.15,VWS V14.01,2013-03-09 02:36:00,
2013-03-08 20:41:00,34.2,29.3,30.21,SE,128,1.0,4.0,82,0.00,,---,0.15,VWS V14.01,2013-03-09 02:41:00,
2013-03-08 20:46:00,34.2,29.3,30.21,East,89,1.0,5.0,82,0.00,,---,0.15,VWS V14.01,2013-03-09 02:46:00,
2013-03-08 20:51:00,34.2,29.3,30.21,ENE,59,1.0,5.0,82,0.00,,---,0.15,VWS V14.01,2013-03-09 02:51:00,
2013-03-08 20:56:00,34.1,29.2,30.21,East,95,0.0,5.0,82,0.00,,---,0.15,VWS V14.01,2013-03-09 02:56:00,
2013-03-08 21:01:00,34.0,29.1,30.21,ENE,74,1.0,2.0,82,0.00,,---,0.15,VWS V14.01,2013-03-09 03:01:00,
2013-03-08 21:06:00,33.9,29.0,30.21,East,83,1.0,3.0,82,0.00,,---,0.15,VWS V14.01,2013-03-09 03:06:00,
2013-03-08 21:11:00,34.0,29.1,30.21,SE,139,1.0,3.0,82,0.00,,---,0.15,VWS V14.01,2013-03-09 03:11:00,
2013-03-08 21:16:00,33.8,28.9,30.20,SE,140,0.0,1.0,82,0.00,,---,0.15,VWS V14.01,2013-03-09 03:16:00,
2013-03-08 21:21:00,33.7,28.8,30.21,East,97,1.0,6.0,82,0.00,,---,0.15,VWS V14.01,2013-03-09 03:21:00,
2013-03-08 21:26:00,33.7,28.8,30.20,ENE,75,1.0,6.0,82,0.00,,---,0.15,VWS V14.01,2013-03-09 03:26:00,
2013-03-08 21:31:00,33.7,28.8,30.20,East,96,1.0,6.0,82,0.00,,---,0.15,VWS V14.01,2013-03-09 03:31:00,
2013-03-08 21:36:00,33.7,28.8,30.20,ENE,62,1.0,6.0,82,0.00,,---,0.15,VWS V14.01,2013-03-09 03:36:00,
2013-03-08 21:41:00,33.7,28.8,30.19,ESE,104,1.0,6.0,82,0.00,,---,0.15,VWS V14.01,2013-03-09 03:41:00,
2013-03-08 21:46:00,33.6,28.7,30.19,East,100,0.0,2.0,82,0.00,,---,0.15,VWS V14.01,2013-03-09 03:46:00,
2013-03-08 21:51:00,33.6,28.7,30.19,ENE,65,2.0,3.0,82,0.00,,---,0.15,VWS V14.01,2013-03-09 03:51:00,
2013-03-08 21:56:00,33.6,28.7,30.19,ESE,113,1.0,3.0,82,0.00,,---,0.15,VWS V14.01,2013-03-09 03:56:00,
2013-03-08 22:01:00,33.6,28.7,30.19,ENE,62,1.0,3.0,82,0.00,,---,0.15,VWS V14.01,2013-03-09 04:01:00,
2013-03-08 22:06:00,33.5,28.6,30.19,ENE,78,1.0,3.0,82,0.00,,---,0.15,VWS V14.01,2013-03-09 04:06:00,
2013-03-08 22:11:00,33.5,28.6,30.19,ENE,57,1.0,3.0,82,0.00,,---,0.15,VWS V14.01,2013-03-09 04:11:00,
2013-03-08 22:16:00,33.5,28.9,30.18,ESE,116,0.0,4.0,83,0.00,,---,0.15,VWS V14.01,2013-03-09 04:16:00,
2013-03-08 22:21:00,33.5,28.6,30.19,ESE,107,0.0,4.0,82,0.00,,---,0.15,VWS V14.01,2013-03-09 04:21:00,
2013-03-08 22:26:00,33.4,28.5,30.19,ESE,109,1.0,4.0,82,0.00,,---,0.15,VWS V14.01,2013-03-09 04:26:00,
2013-03-08 22:31:00,33.5,28.6,30.19,ENE,75,1.0,2.0,82,0.00,,---,0.15,VWS V14.01,2013-03-09 04:31:00,
2013-03-08 22:36:00,33.4,28.5,30.19,ENE,74,2.0,2.0,82,0.00,,---,0.15,VWS V14.01,2013-03-09 04:36:00,
2013-03-08 22:41:00,33.4,28.5,30.19,ENE,78,1.0,3.0,82,0.00,,---,0.15,VWS V14.01,2013-03-09 04:41:00,
2013-03-08 22:46:00,33.4,28.5,30.18,East,95,0.0,5.0,82,0.00,,---,0.15,VWS V14.01,2013-03-09 04:46:00,
2013-03-08 22:51:00,33.4,28.8,30.18,East,81,0.0,5.0,83,0.00,,---,0.15,VWS V14.01,2013-03-09 04:51:00,
2013-03-08 22:56:00,33.5,28.6,30.18,ESE,112,1.0,5.0,82,0.00,,---,0.15,VWS V14.01,2013-03-09 04:56:00,
2013-03-08 23:00:00,33.5,28.9,30.17,South,187,1.0,2.0,83,0.00,,---,0.15,VWS V14.01,2013-03-09 05:00:00,
2013-03-08 23:05:00,33.6,29.0,30.17,East,100,0.0,4.0,83,0.00,,---,0.15,VWS V14.01,2013-03-09 05:05:00,
2013-03-08 23:10:00,33.8,28.9,30.17,ENE,71,0.0,5.0,82,0.00,,---,0.15,VWS V14.01,2013-03-09 05:10:00,
2013-03-08 23:15:00,33.9,29.0,30.16,ENE,67,0.0,2.0,82,0.00,,---,0.15,VWS V14.01,2013-03-09 05:15:00,
2013-03-08 23:20:00,33.9,29.0,30.16,SE,145,3.0,3.0,82,0.00,,---,0.15,VWS V14.01,2013-03-09 05:20:00,
2013-03-08 23:25:00,34.0,29.1,30.16,SE,137,0.0,3.0,82,0.00,,---,0.15,VWS V14.01,2013-03-09 05:25:00,
2013-03-08 23:30:00,34.0,29.1,30.16,East,100,0.0,1.0,82,0.00,,---,0.15,VWS V14.01,2013-03-09 05:30:00,
2013-03-08 23:35:00,34.0,29.1,30.16,East,82,1.0,4.0,82,0.00,,---,0.15,VWS V14.01,2013-03-09 05:35:00,
2013-03-08 23:40:00,34.1,28.9,30.15,ENE,74,1.0,4.0,81,0.00,,---,0.15,VWS V14.01,2013-03-09 05:40:00,
2013-03-08 23:45:00,34.1,28.9,30.15,East,90,0.0,3.0,81,0.00,,---,0.15,VWS V14.01,2013-03-09 05:45:00,
2013-03-08 23:50:00,34.1,28.9,30.15,East,83,2.0,4.0,81,0.00,,---,0.15,VWS V14.01,2013-03-09 05:50:00,
2013-03-08 23:55:00,34.1,28.9,30.15,East,90,1.0,6.0,81,0.00,,---,0.15,VWS V14.01,2013-03-09 05:55:00,